Location: Newark
(20.1720°N, 90.0102°W)
Time: 09:09:36
(UTC+00:00)

Envisat - Pass Details

Date: 30 August 2019
Orbit: 764 x 766 km, 98.1° (Epoch: 18 September)

Event Time Altitude Azimuth Distance (km) Brightness Sun altitude
Rises 00:32:53 0° 171° (S) 3,218 6.0 -4.2°
Reaches altitude 10° 00:35:11 10° 172° (S) 2,294 5.3 -4.8°
Maximum altitude 00:40:15 76° 258° (WSW) 789 3.3 -5.9°
Drops below altitude 10° 00:45:18 10° 344° (NNW) 2,299 5.9 -7.1°
Sets 00:47:37 0° 346° (NNW) 3,226 6.6 -7.6°
